Theta_e
312 312 312 312 312 311 311 311 311 311 310 310 309 309 309 308 308 307 307 307 307 306 306 306 304 304 304 303 303 303 303 303 304 304 304 305 305 304 304 305 305 305 304 304 304 304 303 303 303 302 302 302 301 300 300 299 299 299 299 299 299 299 299 300 300 300 300 300 300 300 301 301 302 303 303 304 304 305 306 307 308 309 311 313 317
312 312 312 311 311 311 310 310 310 310 309 309 308 308 308 307 307 307 307 307 306 306 306 305 305 304 303 303 302 302 301 302 302 302 303 304 305 304 304 305 305 304 304 303 303 303 303 302 302 301 301 301 300 299 299 298 298 298 298 298 298 298 299 299 299 299 299 299 299 300 300 301 301 301 302 303 304 304 305 306 307 309 310 311 313
312 311 311 311 310 310 310 310 309 309 308 308 307 307 307 307 306 306 306 306 306 306 306 305 305 304 302 302 301 300 300 299 300 301 301 303 305 305 304 305 304 304 304 303 303 302 302 301 301 300 300 299 299 298 298 298 298 298 298 298 298 298 298 298 299 299 299 299 299 299 299 300 300 300 301 302 303 304 304 305 306 307 308 309 312
311 311 310 310 310 310 310 310 309 308 308 307 307 306 306 306 306 306 306 306 306 305 305 305 304 303 302 301 300 299 298 298 299 300 301 303 305 304 304 304 304 303 303 303 302 302 301 301 300 299 299 298 298 298 297 297 297 297 297 297 297 297 297 298 297 297 298 298 298 298 299 299 299 300 301 301 302 302 303 304 305 306 307 309 311
311 311 310 310 309 309 309 309 308 308 307 307 306 306 306 306 306 306 306 305 306 306 305 304 303 302 301 301 300 298 297 297 298 299 300 302 304 304 304 304 303 303 303 302 301 301 300 300 300 299 298 298 297 297 297 297 297 296 296 296 297 297 297 297 297 297 297 298 298 298 298 299 299 300 300 300 301 301 302 302 304 305 306 307 307
310 310 309 309 309 308 308 307 307 307 306 306 306 306 305 305 305 305 305 305 305 305 305 304 303 302 301 300 299 297 297 297 297 298 300 301 303 304 303 303 303 302 302 302 301 300 300 299 299 298 298 298 297 297 297 296 296 296 296 296 296 296 296 296 296 297 297 297 298 298 298 298 299 299 299 300 300 300 301 302 303 304 304 304 305
309 309 308 308 307 307 306 306 306 306 306 305 305 305 305 305 305 305 305 305 305 305 304 304 303 302 301 299 297 296 296 296 296 297 299 301 302 303 303 303 303 302 301 301 300 300 299 299 299 298 298 298 297 297 296 295 295 295 295 296 296 296 296 296 297 297 297 297 297 298 298 298 298 298 298 299 299 300 300 301 302 302 303 303 304
308 308 307 306 306 306 306 305 305 305 305 305 305 305 304 304 305 305 305 305 305 305 304 303 303 302 301 299 296 295 295 295 296 297 298 300 301 303 303 302 302 301 301 301 300 299 299 298 298 298 298 297 297 296 294 294 294 294 295 295 295 296 296 297 297 297 297 297 297 297 297 298 298 298 298 299 299 299 300 300 301 301 302 302 303
307 307 306 306 306 305 305 305 305 305 305 305 304 304 304 304 304 305 305 305 305 305 304 303 302 301 300 299 296 294 294 295 295 296 297 299 300 302 302 302 301 301 300 300 299 299 299 298 298 298 297 297 297 295 293 293 294 294 294 295 296 296 297 297 296 296 296 296 297 297 297 297 298 298 298 298 298 298 299 299 299 300 301 301 301
306 306 305 305 305 304 304 304 304 304 304 305 304 304 304 304 304 304 304 304 305 304 303 302 301 300 299 298 296 294 293 295 296 296 297 298 299 301 302 301 301 300 300 300 299 298 298 298 297 297 297 296 296 294 293 294 294 294 295 295 296 296 296 296 296 296 296 296 297 297 297 297 297 297 297 297 297 297 297 298 298 298 299 299 300
305 305 304 304 304 304 304 304 304 304 304 304 304 304 304 304 304 304 304 304 304 304 303 302 301 298 297 296 295 293 293 295 297 297 298 298 299 300 301 301 301 300 299 299 299 298 298 297 297 297 296 296 295 294 294 293 293 294 295 296 296 296 296 296 296 296 296 296 296 296 296 296 296 296 296 296 296 296 296 296 296 297 297 298 299
304 304 304 303 303 303 303 303 303 303 303 304 304 304 304 304 304 304 304 304 304 304 304 303 301 298 296 295 294 293 293 294 296 297 298 298 299 300 301 300 300 300 299 299 298 298 298 297 297 297 296 296 295 294 293 293 293 294 295 296 296 296 295 296 296 296 296 296 296 296 296 296 296 295 295 295 296 295 295 296 295 296 296 297 298
303 303 303 303 303 303 302 302 302 302 302 303 303 303 303 303 303 303 303 304 304 304 303 303 302 300 297 294 293 292 292 294 295 297 297 298 299 299 300 300 300 299 299 299 298 298 297 297 297 296 296 296 295 293 293 293 293 294 295 295 295 295 295 295 295 295 295 295 295 295 295 295 295 295 295 295 295 295 295 295 295 295 296 296 297
303 303 303 303 302 302 302 302 302 302 302 302 302 303 303 303 303 303 303 303 302 303 303 303 303 301 299 296 293 292 292 293 294 296 297 298 299 299 299 300 300 299 299 298 298 298 297 297 297 296 295 295 294 293 293 293 293 293 294 295 295 295 295 295 295 295 295 295 295 295 295 295 295 295 295 295 295 295 295 295 295 295 295 295 296
303 303 303 302 302 302 302 302 302 302 302 302 302 302 302 302 302 302 302 302 302 302 302 302 303 302 301 299 296 293 292 291 293 294 296 298 299 299 298 299 299 299 299 298 298 298 297 296 296 296 295 295 294 293 293 293 293 294 294 294 295 295 295 295 295 295 295 295 295 295 295 295 295 295 295 295 295 295 295 295 295 295 295 295 296
303 302 302 302 302 302 302 301 301 302 302 302 302 302 302 302 301 301 301 301 301 301 300 300 301 302 302 301 299 296 293 292 292 292 294 296 298 299 298 297 298 299 299 298 298 298 297 296 296 295 295 294 294 293 293 293 293 294 294 294 295 295 295 295 294 294 295 296 296 295 295 295 295 295 295 295 295 295 294 294 294 294 295 296 297
303 302 302 302 301 301 301 301 301 302 302 302 302 302 302 301 301 301 301 301 301 300 300 299 299 299 300 301 301 299 295 294 292 291 292 294 296 298 297 296 297 297 298 298 298 297 297 296 295 295 295 294 294 294 293 293 293 294 294 294 295 295 295 294 294 294 295 296 295 295 295 295 294 294 294 294 295 294 294 294 294 295 296 297 298
302 302 302 301 301 301 301 301 301 301 302 302 302 301 301 301 301 301 301 301 301 301 300 300 298 297 297 299 300 299 298 296 293 291 291 292 294 296 297 296 296 296 297 298 298 297 297 297 296 295 295 294 294 294 294 294 294 294 294 294 295 295 295 294 294 294 295 295 295 295 294 294 294 294 294 294 294 294 294 294 294 295 295 296 297
302 302 302 301 301 301 301 301 301 301 302 302 302 301 301 301 300 301 300 301 300 300 300 300 300 299 298 297 298 299 298 298 295 292 291 292 293 295 296 295 295 295 296 297 298 297 297 297 297 296 295 294 294 294 294 294 294 294 294 294 295 295 294 294 294 294 295 295 295 294 294 294 294 294 294 294 294 294 294 294 294 294 295 296 297
302 302 301 301 301 301 301 301 301 301 301 301 301 301 301 301 301 300 300 300 300 299 300 300 300 300 300 299 299 299 299 298 296 292 292 293 293 294 295 295 294 294 295 296 297 297 296 297 296 295 295 294 294 294 294 294 294 294 294 294 294 294 294 294 294 295 295 295 294 294 294 294 294 294 294 294 294 294 294 294 294 294 294 295 296
302 302 301 301 301 301 301 301 301 301 301 301 301 301 301 301 300 300 300 300 300 300 301 301 300 300 300 300 300 300 298 297 296 293 292 293 293 293 294 294 293 294 295 296 297 296 296 296 296 295 295 295 294 294 294 294 294 294 294 294 294 294 294 294 294 294 294 294 294 294 294 294 293 293 293 293 293 294 294 294 293 293 294 295 296
302 302 302 302 301 301 301 301 301 301 301 301 301 301 301 301 300 300 300 301 301 301 301 301 300 300 300 300 300 300 299 297 296 293 292 293 293 293 293 293 293 293 294 295 296 296 296 296 295 295 295 295 294 295 294 294 294 294 294 294 294 294 294 294 294 294 294 294 294 294 293 293 293 293 293 293 293 294 293 293 293 293 293 294 295
302 302 302 302 302 302 301 301 301 301 301 301 301 301 302 301 301 301 301 301 301 301 301 301 300 300 300 300 300 300 298 297 296 294 293 293 293 293 293 293 293 294 295 295 296 295 295 295 295 295 295 295 295 294 294 294 294 294 294 294 294 294 294 294 294 294 294 294 293 293 293 293 293 293 293 293 293 293 293 293 293 293 293 294 295
302 302 302 302 302 302 302 301 301 301 301 301 301 301 301 302 301 302 302 302 301 301 300 300 300 300 300 300 300 299 298 297 296 294 293 293 293 293 293 293 294 294 295 295 295 294 294 294 294 295 295 295 295 295 294 294 294 294 294 294 294 294 294 294 294 294 293 293 293 293 293 293 293 293 293 293 294 293 293 293 293 293 293 294 295
302 302 302 302 302 302 302 302 302 301 301 301 301 301 301 301 301 302 302 301 301 300 300 300 300 300 300 300 300 299 298 296 295 294 294 293 292 292 293 293 294 294 295 295 294 294 294 294 295 295 295 295 295 294 294 294 294 294 294 294 294 294 294 293 293 293 293 293 293 293 293 293 293 293 293 294 294 293 293 293 293 293 293 293 295
302 302 302 302 302 302 302 302 302 302 302 301 301 301 302 302 301 301 301 301 300 300 300 299 300 300 300 299 300 299 298 296 295 293 293 292 291 292 293 293 293 294 294 294 294 293 294 295 295 295 295 295 295 294 294 294 294 294 294 294 294 294 294 293 293 293 292 293 293 293 293 293 293 293 294 294 294 293 293 292 292 293 292 293 293
302 302 302 301 301 302 302 302 301 301 301 301 302 302 302 302 302 301 301 301 300 300 300 299 300 300 300 299 298 299 298 296 294 292 291 291 291 291 293 293 293 293 293 294 293 293 294 295 295 295 295 295 295 294 294 294 294 294 294 294 294 294 294 293 293 292 292 293 293 293 293 293 293 294 294 294 294 293 293 292 292 292 292 292 293
302 302 301 301 301 301 301 301 301 302 302 302 301 301 301 301 301 302 301 301 301 301 300 299 299 300 300 298 297 297 297 296 294 292 291 291 291 291 293 293 293 293 293 293 293 294 294 295 295 295 295 295 295 295 294 294 294 294 294 294 294 294 294 293 292 292 292 293 293 293 293 293 293 294 294 294 294 293 293 292 292 292 292 292 292
302 301 301 301 301 301 301 301 301 301 302 302 301 301 301 301 301 301 301 301 301 301 301 299 298 300 300 298 296 297 297 295 293 291 291 292 291 291 293 294 294 294 294 294 294 294 294 295 295 295 295 295 295 295 295 295 294 294 294 294 294 294 294 293 292 292 292 292 293 293 293 293 293 294 295 294 294 293 293 292 292 292 292 292 292
302 301 301 301 301 301 301 300 301 301 302 302 301 301 301 301 301 300 298 297 298 299 299 298 296 297 299 299 297 296 295 293 292 292 291 291 291 292 293 294 294 294 294 294 294 295 295 295 295 295 295 295 295 295 295 295 294 294 294 294 294 294 293 293 292 292 292 292 293 293 293 293 293 294 295 294 294 294 293 292 292 292 292 292 292
302 301 301 301 301 301 301 300 301 301 302 302 302 301 300 300 300 299 297 294 294 295 295 295 293 294 296 298 296 294 293 292 292 292 291 291 291 293 294 295 295 295 295 295 295 295 295 295 295 296 295 295 295 295 295 295 294 294 294 294 293 293 293 292 292 292 292 292 293 293 293 293 293 295 295 294 294 294 293 293 292 292 292 292 291
302 301 302 301 301 301 301 299 301 302 302 301 302 300 299 298 299 298 295 293 293 294 294 294 294 293 294 294 294 292 292 292 292 291 291 292 293 294 295 295 295 296 295 295 295 296 296 296 296 296 295 295 295 294 294 294 294 294 294 293 293 293 293 292 292 291 291 292 292 292 293 293 294 295 295 295 294 294 293 293 292 292 292 291 291
302 301 302 301 301 302 301 299 300 302 302 301 301 299 297 297 297 296 294 294 294 295 295 296 296 295 295 295 294 294 294 294 292 292 293 293 294 295 295 296 296 296 296 296 296 296 296 296 296 296 295 295 295 294 294 294 294 293 293 293 293 293 292 292 292 292 291 292 292 292 292 293 293 294 295 295 295 294 294 293 293 292 292 292 291
302 302 302 302 301 302 302 300 300 302 302 302 301 300 298 298 297 296 295 294 294 295 296 296 297 297 297 296 296 296 296 295 293 293 294 295 295 295 295 296 297 297 297 297 297 297 296 296 296 295 295 295 295 294 294 294 294 294 293 293 292 292 292 292 292 292 291 292 292 292 292 293 293 294 295 295 295 295 294 294 293 293 292 292 292
302 302 303 302 301 301 302 302 302 302 302 302 302 302 301 301 300 298 297 296 296 296 297 297 298 297 297 297 297 297 297 296 295 295 296 296 295 295 295 296 297 297 297 297 297 297 296 296 296 295 295 295 295 294 294 294 294 293 293 292 292 292 292 292 292 292 291 292 292 292 292 292 293 293 294 295 295 295 295 294 294 293 293 292 292
304 303 303 303 302 301 302 303 302 302 302 302 302 302 302 302 302 301 300 299 299 299 299 299 299 299 298 298 297 297 297 297 296 296 296 296 296 296 296 296 296 297 297 297 297 297 296 296 296 295 295 294 294 294 294 294 293 293 293 293 292 292 292 292 292 291 291 291 292 292 292 292 293 293 294 295 295 295 295 295 294 294 294 293 293
304 303 303 303 303 301 301 303 302 302 302 302 301 301 301 302 301 301 300 300 300 300 300 300 300 299 298 298 297 297 297 298 297 296 296 297 296 296 296 296 296 297 297 297 297 297 297 296 296 295 295 294 294 294 294 294 293 293 293 293 292 292 292 292 292 291 291 291 292 292 291 291 293 293 293 294 295 295 295 295 295 294 294 294 293
303 303 303 303 303 301 301 302 302 302 302 302 301 301 301 301 301 301 300 301 301 301 300 300 300 300 300 299 299 298 298 298 297 297 297 297 297 297 297 297 297 297 297 297 297 297 297 297 296 295 295 294 294 294 294 294 293 293 292 292 292 291 291 291 291 291 291 291 291 292 291 291 292 293 293 294 294 295 295 295 295 295 294 294 294
302 303 303 302 302 301 301 302 302 302 301 301 301 301 301 301 301 301 300 301 300 301 300 299 299 300 300 300 300 299 298 297 297 298 298 298 297 298 298 298 298 298 298 297 297 297 297 297 296 295 295 294 294 293 293 294 294 293 292 292 292 291 291 291 291 291 291 291 291 292 291 291 291 292 293 293 294 295 295 296 296 295 295 294 294
303 303 302 302 302 301 301 302 302 301 301 301 301 301 301 301 301 301 301 300 300 300 300 300 300 300 300 300 300 299 299 298 298 297 297 297 298 298 298 298 298 298 298 298 298 297 297 297 296 295 295 294 294 293 293 293 294 293 293 292 291 291 291 291 290 291 291 291 291 291 291 291 291 292 292 293 293 294 295 295 296 296 295 295 295
303 303 302 301 301 301 301 302 302 301 301 301 300 300 301 301 301 301 300 300 300 300 300 300 301 300 300 300 300 299 299 298 297 296 296 296 297 298 298 298 298 298 298 298 297 297 297 297 296 295 295 294 294 293 293 293 293 293 293 292 291 290 290 289 289 290 291 291 291 291 292 291 291 291 292 292 293 293 294 295 296 296 296 295 295
302 302 302 301 300 300 301 302 302 302 302 301 301 300 300 301 301 300 300 300 300 300 300 300 300 300 300 300 299 299 299 298 297 296 296 296 297 298 298 298 298 298 298 298 297 297 297 297 296 295 295 294 294 293 293 293 293 293 293 292 291 290 289 289 288 289 290 290 291 291 292 291 291 291 291 292 293 293 293 294 295 296 296 295 295
302 302 302 300 300 300 300 301 302 302 302 302 301 300 300 301 301 301 301 300 300 300 300 300 300 300 300 300 299 299 298 298 297 297 297 296 297 298 299 298 298 297 298 298 297 297 296 296 296 295 294 294 294 294 293 293 293 293 293 292 291 290 289 288 288 289 289 290 291 291 291 291 291 291 291 291 292 292 293 293 294 295 296 296 295
302 302 301 301 300 300 300 300 301 302 302 302 302 301 301 301 301 301 301 301 300 300 300 299 299 300 300 299 299 298 298 298 298 298 297 297 298 298 298 298 298 297 298 298 297 297 296 296 296 295 295 294 294 293 293 293 293 293 293 292 291 291 290 289 289 288 288 289 291 291 291 291 291 291 291 291 291 292 292 293 293 294 295 296 296
302 302 302 301 301 301 300 300 300 301 301 301 301 301 301 301 300 300 300 300 300 300 300 300 300 299 299 299 299 298 298 298 298 298 298 298 299 299 298 298 298 298 298 298 297 297 297 296 296 295 295 294 294 294 293 293 293 293 293 293 292 291 290 289 289 289 288 289 290 291 291 291 291 291 291 291 291 291 292 292 292 293 294 295 296
303 303 303 302 302 301 300 300 300 300 300 300 300 300 300 300 300 300 299 300 300 300 300 300 300 300 300 299 299 299 299 299 299 299 299 299 299 299 298 298 298 298 297 297 297 297 296 296 296 295 295 295 294 294 293 293 293 293 293 293 292 292 290 290 290 289 289 289 290 291 291 290 290 290 290 290 291 291 291 291 292 293 293 294 294
303 303 303 303 302 302 301 300 299 299 300 300 300 300 300 300 300 299 299 299 299 299 299 299 300 300 300 300 299 299 299 299 299 299 299 299 299 298 298 298 298 298 297 297 297 297 297 296 296 296 295 295 295 294 294 293 293 293 293 293 293 292 291 290 289 290 290 289 289 290 290 290 290 290 290 290 290 291 291 291 291 292 292 293 293
303 303 303 303 303 303 302 301 300 299 299 300 300 300 300 300 300 300 300 299 299 299 299 299 299 299 299 299 300 299 299 299 299 299 299 299 299 298 298 298 298 298 298 297 297 297 297 296 296 296 296 295 295 295 294 294 293 293 293 293 293 292 292 291 290 290 290 289 289 290 290 290 290 290 290 290 290 290 291 291 291 291 292 292 293
303 303 303 303 303 303 302 302 301 301 300 301 301 301 301 301 300 300 300 299 299 299 299 299 299 299 299 299 299 299 299 299 299 299 299 299 299 299 299 299 298 298 298 298 298 297 297 297 296 296 296 296 296 295 295 294 294 293 293 293 293 293 292 292 290 290 290 289 289 290 291 290 290 290 290 290 289 290 290 291 291 291 292 292 293
302 303 303 303 303 303 303 302 302 302 302 301 301 301 301 301 301 300 300 300 300 299 300 299 300 300 299 299 299 299 299 299 299 299 299 299 299 299 299 299 298 298 298 298 298 298 297 297 296 296 296 296 296 296 295 295 294 294 293 293 293 293 292 292 292 291 290 290 289 290 291 291 291 290 290 290 290 290 290 290 291 291 291 292 292
302 302 303 303 303 303 303 302 302 302 302 302 301 302 301 301 301 301 301 300 300 299 299 299 299 299 299 300 299 299 299 299 299 299 299 299 299 299 299 299 299 299 298 298 298 298 297 297 297 297 296 296 296 296 296 295 295 294 294 293 293 293 293 293 292 291 290 290 290 290 291 292 292 291 291 291 290 290 290 290 290 291 291 291 291
Wind_Speed
14 14 15 15 15 15 14 14 14 14 14 14 14 14 14 13 13 13 13 12 12 12 12 13 13 13 14 14 14 14 14 14 14 13 12 12 12 12 13 12 12 12 13 13 13 13 14 14 15 17 18 18 18 18 18 20 21 21 20 20 21 21 21 21 17 17 24 26 27 29 32 34 35 33 34 35 35 34 34 33 34 35 35 34 33
15 16 16 16 15 15 15 15 15 14 14 15 15 14 14 14 13 13 13 12 12 12 12 12 13 13 13 14 14 14 14 14 13 13 13 12 11 12 12 12 12 12 12 12 13 13 14 14 16 18 18 18 18 18 18 20 21 21 21 21 22 22 22 23 22 20 24 27 28 29 29 30 32 34 35 35 35 35 35 34 34 34 34 34 36
16 16 16 16 16 15 15 15 15 15 15 15 15 14 14 13 13 13 13 12 12 12 12 12 12 13 13 14 14 14 14 14 13 13 13 12 11 11 12 11 11 12 12 12 13 14 14 14 17 18 17 17 18 18 18 20 21 21 23 23 23 24 23 23 23 24 26 28 28 29 29 29 30 32 34 34 34 35 34 34 34 34 35 36 35
16 16 16 16 16 16 15 15 15 15 15 15 15 15 14 13 13 13 13 12 12 12 12 12 12 13 13 14 14 14 15 14 13 13 13 12 11 11 11 11 11 12 12 12 13 14 14 15 16 17 17 17 18 19 19 21 22 23 24 24 23 24 24 23 23 25 26 27 28 28 28 29 29 30 32 34 34 33 33 34 34 34 34 34 33
17 17 17 16 16 16 16 16 16 16 15 15 15 14 14 14 13 13 13 12 12 12 12 12 12 13 13 13 13 14 15 15 14 12 12 11 10 10 11 10 10 11 11 12 13 14 15 15 16 17 17 17 19 21 21 22 24 25 26 25 24 23 24 24 24 25 26 27 29 28 27 27 28 28 30 32 34 34 34 33 33 32 33 34 35
18 17 17 17 17 17 16 16 16 16 16 15 15 14 14 13 13 13 13 12 12 12 12 12 12 12 12 13 13 14 15 16 15 13 11 9 9 10 10 10 10 11 11 12 12 14 14 14 15 16 17 18 20 20 21 24 26 27 26 24 23 24 25 25 25 26 27 28 28 29 28 27 27 27 28 30 32 33 34 34 32 30 32 35 36
18 18 17 18 17 17 17 16 16 16 15 15 15 14 14 13 13 13 12 12 12 12 12 12 11 12 12 12 14 14 14 16 16 15 12 9 9 10 10 10 10 11 11 11 11 13 14 14 14 16 17 17 18 21 25 28 28 26 25 23 23 25 25 26 26 26 26 27 27 28 28 27 26 26 28 29 29 29 30 31 31 31 32 32 33
19 18 18 18 17 17 16 16 16 16 15 15 15 14 14 14 13 13 13 13 12 11 12 11 11 12 12 12 14 15 15 15 16 16 15 12 10 10 9 10 10 11 11 10 11 12 13 14 14 15 16 17 18 23 29 30 28 26 25 24 25 26 26 26 26 25 25 25 26 27 27 27 26 27 27 28 27 27 27 29 30 32 33 32 31
19 18 18 18 18 17 17 16 16 16 16 16 15 15 14 14 13 13 12 12 12 12 12 12 12 12 11 12 13 15 16 15 15 15 15 13 12 11 10 9 10 11 11 9 10 12 13 14 14 15 17 17 19 24 28 28 27 26 26 26 27 27 26 25 25 25 25 26 26 26 27 27 27 27 27 26 27 28 30 31 30 30 33 34 33
19 19 18 18 18 17 17 16 16 16 16 16 15 15 14 14 13 13 12 12 12 12 12 12 13 12 12 12 13 16 17 14 12 12 13 13 12 11 10 10 9 10 11 10 10 12 13 13 14 15 17 17 18 23 27 28 28 26 24 26 27 27 27 26 26 26 26 26 25 25 25 25 27 28 27 29 30 30 31 31 30 31 32 31 32
20 19 19 19 18 17 17 17 16 17 16 16 15 15 14 14 14 13 13 12 11 11 11 12 13 12 13 13 13 16 17 13 11 12 11 11 12 11 10 10 8 10 12 11 11 12 12 13 14 14 17 17 17 22 27 29 29 26 23 24 25 25 27 28 29 28 27 26 26 25 24 25 27 29 29 30 31 30 30 31 32 32 30 23 23
20 20 19 19 18 17 17 17 17 17 16 16 15 15 14 14 14 13 13 12 11 11 10 11 12 12 13 15 16 18 18 14 11 11 11 11 12 11 10 9 9 10 11 11 11 11 11 13 14 15 17 16 17 23 27 29 30 27 23 24 24 25 26 26 27 28 27 27 27 26 25 26 28 29 29 30 32 33 31 31 31 30 29 24 22
20 20 20 19 18 18 18 18 18 17 17 16 16 15 15 14 14 13 13 12 11 11 10 10 10 10 12 15 18 20 19 16 12 10 10 11 11 11 10 9 9 10 10 12 12 10 11 13 13 14 16 16 19 25 28 30 31 28 24 24 24 26 28 27 26 27 27 27 26 26 28 30 30 33 35 36 37 36 33 31 31 29 29 27 26
20 20 20 19 19 18 18 18 18 17 17 16 16 16 15 14 14 13 12 12 12 11 10 9 9 9 8 12 18 21 20 17 15 11 10 10 11 12 11 10 9 9 10 12 11 9 12 13 11 12 14 16 23 28 29 31 33 30 26 25 26 27 28 28 29 30 29 27 26 28 31 34 35 38 42 43 41 39 36 34 34 31 32 33 33
20 20 20 19 19 19 18 19 18 18 17 16 16 15 14 14 13 12 12 12 11 11 10 9 8 8 7 7 13 19 20 18 16 14 12 10 11 13 13 11 11 10 10 13 11 8 12 11 9 11 14 19 27 30 29 31 33 29 26 27 28 28 29 30 31 32 31 28 28 30 33 37 39 41 43 45 44 42 40 39 37 35 36 37 35
21 21 20 20 19 19 19 19 19 18 17 16 16 15 14 13 12 12 12 11 11 10 10 9 8 7 6 5 7 14 20 20 17 15 14 12 11 14 14 13 13 13 12 14 11 9 11 10 9 13 18 24 30 30 28 30 32 29 28 28 28 28 30 32 32 32 31 28 28 32 36 39 42 43 43 43 42 42 41 39 36 33 30 28 26
21 21 20 20 20 20 20 20 19 18 17 16 16 15 14 13 12 12 12 11 11 10 10 10 9 8 7 5 3 8 15 21 20 17 17 14 12 14 15 14 14 15 16 16 14 10 9 8 12 19 25 29 31 29 28 30 31 30 30 29 28 29 31 34 35 33 29 28 32 37 39 42 43 44 44 43 40 40 38 33 30 27 23 17 16
21 21 21 21 21 20 20 19 19 18 17 16 15 14 13 12 11 11 11 10 10 10 10 9 9 9 9 8 5 4 9 17 20 18 17 16 14 13 14 14 15 16 17 18 17 13 9 8 14 23 29 30 29 29 29 30 31 31 31 29 28 28 32 37 39 36 30 30 37 40 41 44 45 43 44 42 39 37 33 29 28 27 22 16 14
22 22 21 21 21 20 20 19 18 18 17 16 15 14 13 12 11 11 10 10 10 9 9 8 7 6 6 8 8 5 6 11 17 17 17 18 18 15 13 14 16 17 17 17 18 17 13 13 18 24 27 28 29 31 31 30 31 32 31 28 26 28 34 40 40 35 30 33 39 41 42 45 44 42 43 42 38 35 32 30 30 27 23 21 20
22 22 22 22 21 20 20 19 18 18 17 16 15 13 12 11 10 10 10 10 9 9 8 8 7 5 4 3 5 5 5 8 13 16 17 18 19 17 14 14 16 17 16 16 18 18 17 18 20 23 25 26 28 29 29 28 31 30 27 25 25 30 37 39 35 30 30 35 39 40 42 44 45 43 43 42 38 35 34 33 31 28 25 24 24
23 23 22 21 21 20 19 18 18 17 16 15 14 13 11 10 10 9 9 9 8 7 7 7 6 6 4 3 3 2 4 7 11 15 17 17 18 19 15 14 16 17 15 15 16 17 17 18 19 21 23 25 27 27 26 27 31 30 24 23 28 34 38 35 29 27 31 36 38 40 41 43 45 45 45 42 37 35 36 36 32 30 26 25 25
24 23 22 22 21 20 19 18 18 17 15 15 14 13 12 10 10 10 9 8 7 6 5 6 5 5 4 4 4 2 3 6 9 15 17 15 16 17 16 16 17 16 15 15 15 16 16 16 19 22 24 25 26 26 26 28 30 29 24 24 30 35 35 31 28 29 32 35 37 39 41 42 43 45 46 44 39 38 39 38 35 31 28 26 25
24 23 22 22 21 20 20 18 17 16 15 14 13 12 11 10 10 10 10 9 8 7 6 6 4 4 4 4 4 3 2 5 8 13 16 14 14 15 16 17 17 15 14 15 14 15 17 19 23 25 25 24 23 24 26 28 29 29 26 26 31 33 31 30 30 30 31 34 35 37 40 41 42 44 46 45 42 40 40 37 35 32 29 28 25
24 24 23 22 22 20 19 17 16 16 15 14 13 12 11 10 9 9 9 10 9 8 7 5 4 4 4 3 4 4 4 4 8 12 14 13 14 14 15 17 16 13 12 12 13 17 21 23 25 25 24 23 22 24 26 27 28 29 27 28 32 32 29 30 30 29 30 32 34 36 39 41 41 42 45 45 41 40 39 37 35 31 29 28 24
25 24 23 23 22 20 18 17 16 15 14 13 12 11 10 10 9 8 7 7 7 6 6 5 5 4 3 2 3 4 4 4 6 10 12 12 14 14 15 15 14 13 13 12 15 20 23 23 23 23 22 22 23 25 27 26 28 29 28 30 32 30 28 31 30 28 29 31 33 35 39 41 43 43 44 43 39 38 41 40 37 34 33 31 27
26 24 23 22 22 20 18 17 16 15 14 12 12 11 10 10 9 9 8 6 5 4 4 4 4 4 3 2 2 2 4 4 5 8 11 13 14 14 14 14 13 13 14 14 17 21 22 21 22 22 21 20 23 25 25 27 29 29 28 31 32 29 30 32 30 28 30 31 33 36 38 42 44 43 43 41 37 38 42 41 37 36 37 33 28
26 24 23 23 21 20 19 18 17 16 14 13 12 11 9 9 9 8 8 7 6 5 5 4 3 3 3 3 2 1 3 4 6 10 11 12 14 14 14 13 14 15 16 17 21 24 23 22 21 22 21 20 22 24 24 26 29 28 27 31 32 31 31 33 31 30 30 32 34 36 38 41 43 42 42 41 37 38 41 40 35 34 35 32 27
25 24 23 23 21 20 19 19 17 15 14 13 12 11 10 9 9 7 6 6 6 6 5 5 4 3 3 3 2 2 3 4 7 10 11 11 13 13 12 13 14 16 18 21 24 25 25 22 20 21 21 20 22 25 25 25 27 28 27 29 31 30 31 32 32 32 33 34 35 36 38 41 41 40 41 40 38 38 41 40 36 33 33 30 26
25 24 23 22 21 20 20 19 17 15 14 12 11 10 8 8 9 8 6 5 5 6 8 7 6 2 3 3 2 1 3 4 7 9 9 10 11 11 11 12 14 15 17 21 24 25 25 22 20 20 21 20 21 24 25 25 27 27 27 30 31 30 30 31 32 32 35 37 36 36 38 39 37 38 39 38 38 39 40 40 38 35 32 30 27
25 24 22 21 21 21 20 20 17 16 14 13 12 12 8 7 9 8 6 5 5 5 5 4 4 4 3 2 0 2 2 4 6 8 8 9 10 9 9 11 13 15 17 19 21 23 24 22 19 19 20 20 21 23 24 25 26 27 28 30 31 30 31 32 32 33 36 38 37 36 38 37 34 35 38 38 37 38 40 40 38 36 34 30 27
24 23 21 21 22 21 20 20 18 17 16 13 13 13 10 8 8 5 3 4 6 6 5 4 3 5 5 3 3 4 2 3 6 7 8 9 9 8 9 11 13 15 18 20 21 21 22 20 18 20 20 19 21 23 24 24 25 26 27 29 30 30 31 33 34 34 37 38 37 37 38 37 33 33 36 37 36 36 38 40 39 37 36 32 28
24 23 21 22 22 21 20 19 17 15 17 15 13 14 13 11 10 7 5 6 7 6 6 5 4 4 5 3 2 2 2 4 5 5 7 8 9 8 10 14 16 16 18 20 20 19 19 18 18 19 20 19 21 23 24 24 24 25 26 28 29 29 30 32 32 33 36 37 36 37 39 38 34 33 35 37 36 35 35 37 38 37 35 34 33
23 23 22 23 24 20 19 20 17 14 16 17 16 16 16 14 14 14 12 11 10 9 8 8 7 6 5 4 3 2 2 3 4 4 6 8 9 10 12 15 16 16 16 15 14 13 15 17 17 18 19 19 20 22 23 23 23 24 25 27 28 28 30 32 31 33 36 36 35 37 40 38 35 33 33 35 36 35 33 34 35 36 34 33 33
23 23 21 24 25 20 17 19 19 15 15 17 17 18 19 19 19 19 17 15 14 14 13 12 11 10 8 6 5 4 3 3 3 3 5 6 8 10 13 14 15 15 13 10 9 11 15 17 17 17 19 18 19 21 22 22 23 23 24 26 26 27 31 33 32 34 37 35 34 37 40 39 36 33 31 32 34 35 34 33 34 34 32 31 31
22 22 20 21 23 20 16 17 18 16 15 15 16 16 17 18 20 22 20 18 18 18 17 16 15 14 12 10 8 6 5 4 3 3 4 6 7 9 12 14 16 17 14 10 10 12 15 16 16 17 18 18 19 20 21 21 22 22 24 25 25 27 30 32 32 34 36 35 34 36 39 38 37 34 32 30 31 33 33 33 34 34 32 30 30
20 22 21 20 21 21 17 16 17 17 15 15 15 14 13 13 15 18 18 17 18 18 18 18 17 15 13 12 11 9 7 6 5 4 6 7 7 10 13 15 17 18 14 11 11 13 14 14 15 16 17 18 18 19 20 20 21 22 23 24 25 26 28 29 29 32 34 33 33 35 37 37 37 35 33 31 30 30 31 32 33 34 34 32 29
19 21 22 20 19 20 19 16 16 17 16 14 14 14 13 12 11 11 12 12 13 13 13 14 17 18 16 15 15 13 10 8 8 8 10 10 11 13 15 15 17 18 14 11 12 13 13 13 14 15 16 17 18 18 18 19 20 21 23 24 24 26 27 27 27 29 31 31 31 33 35 36 36 35 33 31 30 30 31 31 32 33 35 35 31
20 20 22 20 18 19 18 16 15 16 15 14 14 14 13 12 12 11 10 10 10 8 6 7 13 18 18 17 17 14 11 10 11 12 13 13 13 14 15 15 16 16 13 11 11 12 12 12 13 14 14 15 17 17 18 18 18 20 22 23 24 25 26 26 26 28 30 30 31 32 33 34 35 35 33 31 30 31 31 31 31 31 32 34 33
20 19 22 22 19 18 17 16 15 16 15 14 14 13 12 12 12 12 12 10 9 8 8 9 10 13 14 15 15 15 14 14 14 14 14 13 13 13 13 13 13 12 10 10 10 11 11 11 11 12 13 14 15 16 17 17 17 19 20 21 23 25 25 25 26 27 28 29 30 31 31 32 33 34 33 31 30 31 30 30 31 31 30 31 33
20 20 23 24 21 18 17 16 16 17 16 15 14 13 12 13 13 12 12 12 11 10 11 12 11 11 10 10 12 14 14 14 12 11 11 12 12 11 10 11 11 9 9 10 9 10 10 10 10 11 12 13 14 15 16 16 16 18 19 19 21 24 24 24 25 26 27 28 29 30 31 31 31 33 34 32 31 30 30 28 29 30 30 29 31
19 20 25 26 24 20 17 15 16 18 17 17 16 14 13 13 13 12 12 12 12 11 11 12 12 11 11 10 11 12 13 12 9 8 10 13 12 11 10 10 9 9 10 9 8 9 10 9 9 10 11 12 13 14 15 15 15 16 17 17 19 22 23 24 24 24 25 26 28 29 30 31 30 31 34 33 31 31 30 28 27 28 29 30 30
19 20 25 27 25 21 17 15 15 17 18 18 18 16 15 14 14 14 14 13 12 12 12 12 12 12 12 13 12 12 14 13 10 9 11 12 12 12 12 10 9 9 10 8 7 9 9 9 8 9 10 12 12 13 14 15 15 15 15 15 17 20 22 23 24 23 23 25 26 26 28 29 29 29 31 32 32 31 30 29 27 26 26 28 29
18 20 26 27 25 22 19 17 15 15 16 17 18 17 16 15 15 15 16 16 15 14 13 13 12 11 12 13 13 14 14 13 11 11 12 13 14 14 12 10 9 10 9 8 7 8 9 9 9 10 10 11 12 12 13 14 14 13 13 12 14 17 20 23 23 22 23 24 24 23 25 27 27 27 28 30 31 31 30 28 26 24 24 24 24
18 20 25 27 24 22 21 19 18 17 16 16 16 17 16 15 15 15 15 16 16 17 17 16 14 13 13 13 14 14 14 12 11 13 14 15 16 15 12 10 10 11 11 10 9 9 9 9 10 10 10 11 11 12 12 13 13 13 12 10 11 14 18 21 21 21 21 21 21 22 23 25 25 25 27 27 28 30 30 29 26 23 22 21 20
21 20 23 24 23 22 22 21 20 19 17 17 17 16 16 16 16 15 15 15 15 16 17 17 17 16 15 15 16 17 17 15 14 16 16 17 16 14 12 12 12 11 11 11 10 8 9 10 11 12 13 13 12 12 12 12 12 12 11 10 10 12 16 18 19 20 19 18 18 20 22 22 22 23 24 25 26 27 28 28 27 24 21 19 18
22 20 20 21 22 21 22 21 20 19 18 18 18 17 17 17 17 17 17 17 16 16 16 16 17 17 17 17 18 18 18 17 17 17 17 17 15 13 12 12 12 11 10 10 9 8 9 11 13 14 14 14 13 12 13 12 12 11 11 10 10 11 14 17 17 18 18 16 15 17 20 20 20 21 21 22 23 24 25 26 26 24 22 21 18
20 19 18 18 19 20 21 21 22 21 20 19 19 18 18 18 18 19 19 19 18 18 17 16 16 17 17 18 19 19 20 20 18 17 16 16 15 15 15 14 13 13 12 12 12 13 13 13 13 13 14 14 13 14 15 14 12 10 11 11 12 12 13 16 16 16 16 15 14 15 17 18 18 19 20 20 20 21 22 24 25 23 21 21 21
18 19 18 17 18 19 19 20 21 22 21 20 19 19 19 19 18 19 19 20 21 22 21 20 19 18 18 18 18 19 20 20 20 19 19 18 17 17 17 16 17 17 17 16 17 18 16 14 13 13 14 15 16 18 17 15 12 11 11 13 14 14 14 15 16 15 14 14 13 12 14 16 17 17 17 18 18 18 19 22 24 23 19 18 21
17 19 19 19 18 18 18 18 19 20 21 20 19 19 20 19 19 18 18 18 19 20 21 21 21 21 20 20 19 19 19 18 18 19 19 18 17 16 16 17 18 19 18 18 19 20 19 17 16 14 14 15 18 19 18 16 14 13 13 15 16 16 15 15 16 15 14 13 12 10 10 13 15 15 15 17 17 17 16 18 22 23 20 17 18
19 18 19 20 19 18 18 18 17 18 19 19 19 19 19 19 19 19 19 18 18 18 18 19 20 20 21 21 20 20 20 20 19 19 19 19 18 18 18 19 20 20 20 21 21 21 20 18 16 13 12 13 16 18 19 19 18 16 15 16 17 18 18 17 17 16 14 13 11 9 8 10 13 14 13 15 16 16 16 17 18 20 20 17 16
22 19 17 18 18 19 19 18 18 18 18 18 19 19 19 20 20 19 19 20 20 20 20 19 19 19 19 19 20 20 20 20 20 20 19 19 18 18 18 19 19 19 19 19 18 17 17 16 16 16 16 16 17 19 20 21 21 19 16 17 18 19 20 19 18 17 14 12 11 9 6 7 11 13 13 13 14 15 16 16 16 17 17 15 16
Wind_Direction
136 132 126 125 124 121 119 118 117 115 112 107 104 102 100 98 95 93 90 85 82 78 73 69 64 59 54 49 45 41 36 34 32 30 27 28 27 25 25 26 28 28 28 28 26 24 22 21 23 20 17 17 13 7 2 357 353 348 344 339 333 331 327 319 311 306 308 312 313 313 315 317 318 319 319 318 318 319 318 316 315 313 311 310 307
135 131 126 124 123 121 119 118 116 114 111 107 103 101 99 97 95 94 90 86 83 79 75 71 65 60 55 48 43 40 35 31 29 27 24 23 25 25 24 26 28 28 28 27 25 24 23 23 25 23 19 17 12 6 0 354 350 344 340 337 330 327 325 319 313 309 309 314 316 315 317 318 318 318 319 318 318 319 318 316 316 314 311 310 307
133 131 129 127 126 124 121 118 116 113 110 108 106 104 102 100 98 94 91 87 84 81 77 73 68 62 54 48 42 37 32 29 27 26 22 19 22 26 24 27 29 26 27 28 26 24 24 26 27 24 19 15 9 3 357 351 347 342 336 333 328 325 325 322 317 313 311 313 316 317 319 319 317 317 317 317 317 318 317 316 315 312 311 310 308
134 133 131 129 128 125 121 119 117 113 111 109 107 105 103 101 99 96 93 90 86 83 79 74 69 62 54 47 40 33 28 26 27 29 25 21 26 27 25 30 31 26 27 30 28 25 24 26 28 23 16 12 5 358 353 348 344 340 335 331 329 327 326 324 321 317 313 312 315 317 317 316 315 316 317 316 317 317 316 315 313 311 311 311 312
136 134 132 130 127 125 122 119 117 114 113 111 108 106 104 101 99 97 94 92 89 85 80 76 70 62 54 46 39 32 28 27 30 31 26 23 28 28 26 30 31 28 29 30 30 28 25 25 26 20 12 8 1 354 350 347 341 337 334 333 332 330 329 327 323 320 315 313 314 316 316 316 315 316 317 317 317 317 316 314 312 312 312 312 312
136 134 133 130 126 124 122 119 118 116 113 112 108 107 105 102 99 96 94 93 91 87 83 78 72 64 55 46 40 34 31 32 35 37 33 29 33 30 26 28 31 30 29 30 31 29 26 25 22 17 10 3 358 355 353 348 342 338 336 336 336 334 331 328 325 322 318 315 315 316 317 319 317 316 318 317 316 316 315 314 313 312 312 312 312
137 135 134 131 126 125 122 120 120 117 114 112 109 107 105 102 99 96 95 95 93 91 88 81 74 66 56 46 40 36 35 33 34 39 39 35 32 29 25 27 31 31 27 27 30 28 26 24 18 12 8 4 3 1 356 349 344 341 340 339 337 333 330 327 325 323 321 319 317 316 316 317 317 315 315 316 314 312 312 313 313 312 311 310 310
138 136 134 130 126 125 123 122 120 117 116 113 109 108 105 101 99 96 96 96 95 96 93 85 78 68 57 47 39 38 39 34 31 34 35 35 34 30 27 27 29 29 23 23 28 28 25 19 14 14 15 12 7 1 356 350 346 342 340 337 333 329 327 327 327 326 325 322 318 317 316 316 315 314 315 316 315 313 313 312 309 309 310 308 307
138 136 134 129 128 126 124 124 122 119 117 114 110 109 105 102 101 97 96 97 95 97 94 87 79 68 59 49 39 38 41 35 30 30 29 31 34 32 28 25 26 25 17 18 29 29 23 15 9 15 19 11 360 357 357 355 349 343 339 336 333 330 328 328 330 329 326 322 318 317 317 316 316 317 317 318 316 314 314 311 306 306 308 306 303
139 137 134 131 130 129 127 126 125 121 118 115 113 110 107 105 102 98 98 98 97 98 96 89 79 68 60 52 40 37 39 36 36 35 29 27 27 27 26 21 23 23 11 11 27 29 22 14 6 9 13 5 357 357 358 356 352 347 343 341 338 335 333 332 331 329 325 322 319 317 316 314 317 319 317 315 314 312 312 311 307 306 306 303 300
141 138 135 134 133 131 131 129 126 123 119 117 115 112 110 107 103 101 100 100 100 100 99 93 83 71 61 54 43 38 38 37 40 41 37 31 24 24 28 20 16 20 10 6 21 25 18 10 5 6 6 0 355 355 354 353 353 351 349 346 344 342 339 335 332 331 328 324 320 318 316 314 315 318 316 314 314 311 310 307 304 302 301 298 298
142 139 136 137 136 134 134 130 126 124 121 120 118 115 112 108 104 103 101 100 102 101 100 100 92 77 62 53 45 39 38 38 39 39 40 38 28 25 27 17 12 18 13 4 10 20 18 10 4 1 0 357 351 352 351 350 352 353 350 345 343 343 344 341 337 335 332 328 323 320 319 316 315 316 313 312 312 309 307 303 298 296 294 290 289
142 140 138 139 138 136 135 131 127 125 123 121 120 116 114 110 106 105 103 102 102 100 100 101 99 87 65 51 44 40 38 37 36 35 35 34 30 27 23 14 9 16 14 3 1 13 18 10 1 355 356 356 353 352 351 349 349 350 347 342 338 339 343 344 342 339 335 330 325 319 317 315 313 313 313 311 309 306 304 301 297 293 289 285 284
143 141 140 140 138 137 135 130 127 125 124 123 121 118 115 113 111 109 106 103 100 98 99 98 100 98 77 52 41 38 36 34 34 33 29 26 29 29 22 11 4 9 12 358 350 7 17 8 1 0 360 360 358 355 351 348 347 346 343 340 336 335 339 340 341 340 337 333 327 321 319 317 313 313 314 313 309 305 302 299 296 292 286 284 283
144 142 141 140 139 137 134 130 128 127 126 125 122 120 120 119 118 116 112 109 103 99 98 96 98 99 93 63 38 33 32 31 33 35 28 26 33 30 20 8 358 357 2 356 347 4 13 6 10 13 5 1 360 356 351 348 346 342 339 337 334 333 335 337 338 338 336 333 328 326 325 322 319 317 317 316 311 307 303 299 295 292 287 284 282
144 142 141 141 140 138 133 131 130 129 129 127 124 124 124 122 121 118 115 113 108 104 98 94 94 94 93 83 39 30 28 26 28 33 30 28 34 30 18 6 358 348 346 353 354 357 1 7 27 23 10 2 357 354 352 350 346 340 335 333 331 329 331 334 334 335 336 336 333 331 328 326 324 322 321 319 314 310 308 303 298 293 285 281 280
144 143 142 142 140 138 134 133 132 131 131 129 127 127 127 125 126 124 122 121 117 114 108 98 91 88 89 93 53 22 23 22 21 25 28 27 33 32 17 5 0 348 340 346 350 345 349 15 31 19 8 1 354 349 350 348 343 338 333 330 328 326 328 332 332 332 335 337 337 334 331 329 329 327 326 324 319 314 310 302 297 294 287 280 281
146 144 144 143 140 138 136 135 135 135 133 131 130 131 130 128 130 130 128 130 129 127 123 114 102 90 87 93 86 22 12 19 18 19 26 29 34 34 17 4 0 351 343 345 347 344 342 352 5 5 1 356 350 347 347 343 337 334 331 328 326 325 327 330 331 330 332 336 337 335 333 333 331 329 328 326 322 319 312 302 299 298 291 284 284
148 146 144 143 140 138 137 137 138 135 133 133 133 132 131 131 133 136 136 136 134 131 129 127 124 112 95 90 86 59 8 12 15 19 28 32 32 32 20 6 360 351 345 344 342 346 348 339 343 351 351 349 348 347 347 344 336 333 331 327 325 328 331 332 332 331 333 337 337 335 333 333 332 330 329 327 325 324 319 312 308 301 292 287 286
148 146 145 142 139 138 138 138 138 135 134 136 135 134 136 139 143 147 144 136 131 129 130 129 133 139 139 115 96 72 25 10 13 19 27 30 28 26 18 5 357 350 346 341 335 342 350 344 341 345 343 341 343 345 348 347 341 336 332 329 329 334 335 334 336 337 337 338 337 334 332 333 332 331 331 328 327 328 326 323 316 306 297 292 287
147 145 143 141 138 138 138 138 137 136 136 136 135 136 139 142 145 143 136 132 133 140 149 150 146 148 151 157 151 101 28 20 16 16 23 28 24 19 14 4 358 353 346 339 335 341 347 342 339 340 338 336 338 341 344 346 343 339 335 334 339 340 337 335 337 341 341 339 336 333 333 333 333 332 332 331 329 330 330 328 324 316 307 298 291
146 144 142 139 137 137 138 139 138 137 138 137 137 139 141 143 143 137 132 135 141 148 156 153 150 157 157 145 146 145 37 35 24 12 16 24 19 15 13 5 1 358 347 337 336 340 339 332 329 331 332 333 337 342 344 344 344 342 338 341 346 344 339 337 339 342 343 340 336 334 333 333 332 332 333 333 332 333 333 332 329 325 319 311 303
146 144 141 138 137 138 139 140 140 140 141 141 141 144 148 150 148 146 150 155 157 159 160 154 147 147 144 128 118 119 70 48 24 7 9 15 12 11 11 3 1 2 350 338 335 333 328 325 325 325 326 329 337 344 346 346 347 346 343 347 349 344 340 341 342 343 344 342 337 335 333 333 332 332 333 334 334 335 336 335 333 332 329 327 325
146 143 141 138 138 140 141 142 143 143 143 146 147 149 154 157 157 167 178 178 172 168 161 153 146 131 122 116 112 108 94 59 19 2 4 7 5 7 6 0 1 3 355 343 335 331 330 329 327 325 325 331 340 345 346 347 349 348 349 351 348 343 342 345 345 345 346 343 339 335 333 333 333 332 333 334 336 339 340 340 340 339 339 341 345
146 142 141 141 142 144 145 145 145 146 147 151 152 156 165 169 169 178 185 178 172 167 154 145 138 119 100 94 105 112 106 70 21 2 359 0 4 6 3 359 1 1 356 347 337 334 335 335 334 334 336 344 350 348 347 349 349 349 352 351 346 343 348 349 347 348 348 344 339 335 333 333 334 334 335 337 341 346 347 346 347 350 353 356 359
144 144 145 146 147 149 148 147 149 152 154 157 160 167 181 182 176 177 175 164 159 153 142 136 132 120 107 82 66 105 111 76 20 2 358 358 4 8 4 2 3 359 354 346 339 339 340 337 338 343 346 350 353 350 350 353 351 348 352 352 347 347 352 351 350 351 349 344 339 336 334 335 335 336 341 344 347 352 352 350 350 354 358 0 1
146 147 148 149 152 152 151 152 155 158 163 168 170 176 187 186 181 181 174 167 167 163 152 135 118 111 109 97 46 40 98 72 9 356 356 357 3 7 4 1 357 351 348 343 338 341 341 336 338 347 349 349 353 353 351 352 351 349 351 354 350 349 352 352 352 352 349 344 340 337 336 339 340 342 347 350 352 355 356 354 354 355 358 1 2
150 150 150 153 155 155 155 156 159 165 173 178 177 179 184 183 179 166 144 138 140 139 134 123 106 72 60 88 72 15 49 40 354 349 351 354 359 1 359 356 349 345 345 340 336 340 343 340 341 348 349 350 355 356 352 350 349 348 349 352 351 349 351 354 354 353 350 345 341 340 340 343 345 347 351 354 356 358 359 359 359 358 360 6 10
151 151 153 155 156 156 158 159 162 173 183 180 170 170 175 177 172 162 151 148 137 120 115 117 122 106 50 71 94 25 17 348 334 342 348 350 353 353 350 348 342 340 341 337 333 337 341 339 339 345 349 352 356 356 352 349 348 349 350 351 351 350 353 355 355 354 351 345 343 343 343 345 348 351 355 358 359 1 3 4 4 3 5 10 14
150 153 156 157 157 158 160 166 172 180 184 176 159 154 154 151 155 162 171 187 193 175 152 147 164 169 131 87 294 264 294 318 328 341 348 349 349 344 338 335 329 329 332 331 331 334 333 332 340 349 351 355 357 355 352 350 348 350 351 351 351 352 355 356 356 354 351 347 345 345 344 345 351 357 360 0 0 2 6 8 8 8 10 12 13
152 156 158 159 161 162 165 177 185 182 182 181 165 158 158 150 148 162 179 172 182 196 194 191 195 184 174 194 259 269 295 329 333 339 348 352 351 340 328 324 322 322 324 324 327 329 327 330 345 352 352 355 359 355 352 351 351 352 353 351 351 354 357 356 356 355 352 348 346 347 347 348 353 1 4 4 2 3 6 9 11 12 12 13 14
154 158 159 162 168 169 170 183 194 185 181 186 176 167 172 171 167 183 199 170 161 167 170 169 163 162 172 195 238 275 325 342 339 342 351 354 352 342 328 323 322 322 321 319 319 322 328 336 347 351 351 356 359 356 352 352 354 355 355 352 351 354 357 356 355 355 353 349 347 349 350 350 355 3 8 7 6 6 8 10 13 14 14 15 18
157 161 164 167 174 176 173 181 196 195 184 185 181 173 176 181 181 187 191 185 179 178 179 184 183 177 175 174 175 213 299 328 334 342 351 356 359 351 336 329 328 327 324 321 316 320 333 341 347 350 352 355 358 356 354 354 355 357 357 354 352 353 354 354 356 357 355 352 351 352 352 352 356 3 9 10 10 10 12 13 15 16 17 17 18
166 170 170 168 175 185 181 179 191 200 193 190 188 182 183 188 187 186 188 190 193 198 202 205 207 207 205 204 200 209 247 305 322 330 340 351 359 351 337 333 335 335 335 337 334 333 339 343 348 352 352 353 357 357 354 354 355 357 358 355 353 354 353 354 356 358 356 354 354 354 354 355 357 2 8 11 12 13 15 16 16 17 18 19 20
173 176 173 166 172 187 193 184 187 197 199 197 196 194 197 195 187 184 189 194 199 207 215 217 218 217 215 218 220 217 230 271 295 302 314 328 340 335 326 328 331 332 339 353 355 345 343 344 348 352 351 351 356 357 355 354 356 357 357 356 354 354 353 354 356 358 357 355 356 356 356 356 357 1 7 11 12 14 16 18 19 19 19 19 21
175 176 176 171 172 186 198 193 187 194 201 200 197 201 207 201 187 186 193 197 201 211 219 223 226 227 222 222 224 225 233 253 267 275 286 296 302 300 302 310 316 318 326 346 351 344 342 345 348 351 351 351 353 354 354 355 356 356 356 355 354 353 354 355 357 358 357 357 356 357 358 358 358 1 7 11 13 14 17 20 22 23 23 23 24
176 174 178 178 176 185 198 199 191 195 200 197 195 202 207 201 194 198 204 205 208 216 221 218 216 218 223 227 227 226 236 253 261 266 272 276 277 279 285 295 300 301 311 336 344 338 339 345 348 349 350 351 351 351 353 354 356 356 355 353 353 353 354 355 358 358 357 357 358 358 360 0 0 1 5 10 13 15 17 21 25 27 27 27 27
183 178 178 181 181 185 196 200 194 195 198 196 198 204 204 196 197 206 216 219 216 216 225 219 205 207 219 231 231 227 233 247 257 265 271 274 272 272 278 285 286 288 302 326 334 331 334 342 345 346 348 349 349 348 350 352 354 355 354 353 353 354 354 356 358 359 358 358 359 359 1 2 2 3 4 7 12 15 18 21 25 28 30 30 30
189 182 176 180 184 186 192 198 195 192 195 198 202 207 204 200 201 207 215 225 224 216 225 237 230 224 229 230 224 220 224 235 249 262 271 275 272 267 271 278 281 289 306 319 321 325 330 335 339 342 344 346 346 346 347 348 350 352 353 354 354 354 354 356 357 358 359 359 358 359 2 3 4 4 4 6 11 15 19 23 26 29 31 33 34
190 182 173 179 188 191 194 198 193 188 191 199 207 213 211 208 209 210 212 221 227 224 224 231 237 246 246 224 199 195 208 226 245 263 275 279 275 267 268 275 282 295 306 307 310 320 326 329 336 339 339 341 342 343 343 344 346 349 352 355 356 356 355 355 356 357 359 358 358 360 3 4 5 6 6 6 9 14 19 24 28 31 35 37 38
187 181 176 181 190 197 202 203 193 187 192 200 209 218 219 214 214 219 221 224 228 231 234 236 239 250 253 233 199 189 206 230 253 273 280 281 279 273 272 274 279 290 297 298 307 318 318 319 327 331 332 334 336 338 340 341 342 347 351 355 357 358 357 356 356 358 360 359 359 2 4 5 7 8 7 6 8 13 19 25 30 34 36 40 42
185 179 175 181 189 197 206 212 203 194 195 199 204 215 221 218 217 221 225 229 232 235 238 241 242 247 247 237 227 225 232 242 256 265 268 272 275 273 270 269 273 283 286 286 300 311 311 311 319 324 325 328 330 332 336 336 337 343 349 351 355 359 360 359 359 1 1 360 1 4 5 7 9 9 9 8 8 10 14 22 30 36 38 40 44
184 176 175 181 188 194 203 214 214 207 203 201 203 211 218 220 222 223 223 225 229 234 240 246 249 249 243 234 234 239 239 239 246 257 261 264 263 261 260 264 272 279 278 277 291 303 303 304 309 310 313 319 321 323 329 331 332 337 342 343 349 357 1 2 5 6 2 360 2 5 5 6 8 9 10 9 8 7 9 15 25 36 42 43 45
189 181 178 182 188 195 202 209 214 215 213 210 209 213 216 220 226 230 228 226 225 226 230 237 244 248 244 232 227 229 230 233 246 258 260 258 254 253 258 268 271 270 268 269 277 287 291 294 298 300 304 309 310 313 320 324 325 330 333 331 339 354 0 3 7 8 2 359 3 7 5 4 7 8 8 8 8 6 7 9 14 26 40 47 49
197 192 182 181 188 197 203 208 212 215 216 217 217 219 221 223 228 233 236 236 234 230 229 231 234 239 240 233 226 226 230 238 248 253 251 249 249 251 256 262 263 263 263 265 267 274 280 286 289 291 294 298 299 302 310 316 318 323 325 317 321 343 355 358 2 8 6 1 5 9 6 3 5 7 7 7 7 6 6 8 9 15 26 37 46
200 200 192 186 188 194 200 206 210 213 215 216 218 220 222 223 226 231 234 237 239 239 238 236 234 234 235 232 228 228 230 235 243 246 245 244 248 253 254 255 258 260 260 261 264 271 280 285 287 287 289 293 292 291 299 309 313 317 317 306 300 321 342 348 355 5 8 4 7 13 9 2 2 6 6 7 8 7 7 8 8 10 14 18 26
198 202 203 198 195 194 196 201 206 211 215 217 217 219 221 224 225 227 230 233 235 238 241 243 243 242 240 237 234 232 232 235 242 250 252 251 253 256 256 255 253 252 252 256 260 264 269 275 278 280 286 289 285 284 293 304 307 306 306 299 290 299 324 339 347 358 4 4 9 17 12 1 0 5 7 6 7 8 7 6 6 8 11 13 15
200 202 207 209 206 203 200 199 202 207 212 217 219 220 223 227 229 229 229 230 230 231 233 237 241 245 247 245 244 243 240 238 241 245 248 249 249 250 253 254 252 251 252 254 251 250 253 255 257 266 279 283 280 281 288 294 295 292 292 291 287 289 306 326 339 347 355 359 5 16 14 3 0 6 7 5 5 7 6 5 5 5 7 12 15
210 206 208 211 211 211 210 207 206 208 211 216 221 222 223 226 230 233 235 237 235 232 231 231 233 237 242 245 248 250 250 247 244 243 243 245 246 245 249 255 255 252 253 254 252 252 250 246 248 263 278 278 275 278 281 280 279 281 281 282 283 284 291 308 325 336 343 349 356 7 10 1 360 5 7 3 4 8 8 5 3 4 5 9 12
220 215 211 211 211 213 216 216 215 215 215 217 220 223 225 227 230 233 236 240 242 242 240 238 236 236 237 239 241 245 248 249 249 248 247 247 246 244 246 251 253 254 256 257 257 256 253 245 245 258 272 271 272 278 277 272 271 274 273 271 276 280 283 293 309 322 329 337 344 353 359 355 353 358 3 2 1 4 7 4 0 2 6 9 9
222 225 222 215 211 212 216 218 220 223 224 222 222 224 226 228 230 233 235 237 239 243 246 248 248 247 245 243 242 242 243 245 247 248 248 248 247 247 248 251 255 261 262 257 253 257 264 263 259 260 267 272 275 275 273 271 272 273 269 264 268 274 278 283 295 308 317 324 329 334 341 343 340 344 354 358 355 355 358 359 358 1 5 7 7